Trinidad, CO

6:39 PM MDT on March 28, 2017 (GMT -0600)
Stokes

Weather History for KTAD - February, 2014

Change the Weather History Date:

Thursday, February 13, 2014

  Actual Average Record
Temperature  
Mean Temperature 51 °F 34 °F  
Max Temperature 67 °F 49 °F 82 °F (1979)
Min Temperature 34 °F 19 °F -6 °F (1965)
Degree Days  
Heating Degree Days 14 31  
Month to date heating degree days 519 410  
Since 1 July heating degree days 3677 3692  
Cooling Degree Days 0 0  
Month to date cooling degree days 0 0  
Year to date cooling degree days 0 0  
Moisture  
Dew Point 21 °F    
Average Humidity 35    
Maximum Humidity 54    
Minimum Humidity 16    
Precipitation  
Precipitation 0.00 in 0.02 in 0.22 in (1997)
Month to date precipitation T 0.21  
Year to date precipitation 0.09 0.61  
Sea Level Pressure  
Sea Level Pressure 29.80 in    
Wind  
Wind Speed 11 mph (WNW)    
Max Wind Speed 26 mph    
Max Gust Speed 33 mph    
Visibility 10 miles    
Events      
T = Trace of Precipitation, MM = Missing Value Source: NWS Daily Summary

Daily Weather History Graph

Daily Weather History Graph

Search for Another Location

Airport or City:

Trip Planner

Search our weather history database for the weather conditions in past years. The results will help you decide how hot, cold, wet, or windy it might be!

Date:

Astronomy

Feb. 13, 2014 Rise Set
Actual Time 6:48 AM MST 5:35 PM MST
Civil Twilight 6:21 AM MST 6:01 PM MST
Nautical Twilight 5:51 AM MST 6:32 PM MST
Astronomical Twilight 5:20 AM MST 7:02 PM MST
Moon 4:45 PM MST (2/13) 5:42 AM MST (2/13)
Length of Visible Light 11h 40m
Length of Day
10h 46m
Waxing Gibbous, 99% of the Moon is Illuminated
Feb 13
Waxing Gibbous
Feb 14
Full
Feb 22
Last Quarter
Mar 1
New
Mar 8
First Quarter

Hourly Weather History & Observations

Time (MST) Temp. Windchill Dew Point Humidity Pressure Visibility Wind Dir Wind Speed Gust Speed Precip Events Conditions
12:54 AM 37.9 °F 31.5 °F 21.0 °F 51% 29.84 in 10.0 mi West 9.2 mph - N/A   Clear
1:54 AM 41.0 °F 35.8 °F 21.9 °F 47% 29.82 in 10.0 mi West 8.1 mph - N/A   Clear
2:54 AM 39.0 °F 32.8 °F 21.0 °F 49% 29.83 in 10.0 mi West 9.2 mph - N/A   Clear
3:54 AM 46.0 °F 41.4 °F 21.9 °F 39% 29.82 in 10.0 mi West 9.2 mph 19.6 mph N/A   Clear
4:54 AM 46.0 °F 40.2 °F 21.0 °F 37% 29.85 in 10.0 mi NW 12.7 mph - N/A   Clear
5:54 AM 37.0 °F 29.8 °F 23.0 °F 57% 29.91 in 10.0 mi SSW 10.4 mph - N/A   Clear
6:54 AM 37.9 °F 32.7 °F 21.9 °F 53% 29.92 in 10.0 mi South 6.9 mph - N/A   Clear
7:54 AM 41.0 °F 35.2 °F 23.0 °F 49% 29.95 in 10.0 mi WSW 9.2 mph - N/A   Clear
8:54 AM 48.9 °F - 24.1 °F 38% 29.92 in 10.0 mi West 6.9 mph - N/A   Clear
9:54 AM 57.0 °F - 25.0 °F 29% 29.88 in 10.0 mi SE 6.9 mph - N/A   Clear
10:54 AM 57.9 °F - 23.0 °F 26% 29.84 in 10.0 mi SSE 5.8 mph - N/A   Clear
11:54 AM 62.1 °F - 21.9 °F 21% 29.78 in 10.0 mi SSE 6.9 mph - N/A   Clear
12:54 PM 64.9 °F - 21.0 °F 19% 29.74 in 10.0 mi NNW 8.1 mph - N/A   Mostly Cloudy
1:54 PM 64.9 °F - 19.0 °F 17% 29.71 in 10.0 mi NW 15.0 mph - N/A   Mostly Cloudy
2:54 PM 64.0 °F - 18.0 °F 17% 29.71 in 10.0 mi NW 20.7 mph 28.8 mph N/A   Scattered Clouds
3:54 PM 62.1 °F - 19.9 °F 20% 29.69 in 10.0 mi NW 15.0 mph 21.9 mph N/A   Clear
4:54 PM 61.0 °F - 21.0 °F 21% 29.68 in 10.0 mi NW 11.5 mph - N/A   Clear
5:54 PM 54.0 °F - 21.0 °F 28% 29.75 in 10.0 mi NNW 10.4 mph - N/A   Clear
6:54 PM 54.0 °F - 19.9 °F 26% 29.78 in 10.0 mi NW 11.5 mph - N/A   Clear
7:54 PM 48.9 °F - 19.9 °F 32% 29.79 in 10.0 mi West 10.4 mph - N/A   Clear
8:54 PM 46.0 °F 41.4 °F 19.0 °F 34% 29.78 in 10.0 mi NW 9.2 mph - N/A   Clear
9:54 PM 50.0 °F - 19.0 °F 29% 29.75 in 10.0 mi NW 13.8 mph - N/A   Clear
10:54 PM 50.0 °F - 21.0 °F 32% 29.76 in 10.0 mi NW 18.4 mph - N/A   Partly Cloudy
11:54 PM 48.0 °F - 21.9 °F 36% 29.74 in 10.0 mi West 13.8 mph - N/A   Clear